Regional Weather Roundup
Issued by NWS Bismarck, ND

Home | Current Version | Previous Version | Text Only | Print | Product List | Glossary On
Versions: 1 2 3 4 5 6 7 8 9 10 11 12 13 14 15 16 17 18 19 20 21 22 23 24 25 26 27 28 29 30 31 32 33 34 35 36 37 38 39 40 41 42 43 44 45 46 47 48 49 50
000
ASUS43 KBIS 110210
RWRBIS

NWR BROADCAST TEXT
NATIONAL WEATHER SERVICE BISMARCK ND
800 PM CST SAT DEC 10 2016

NOTE: "FAIR" INDICATES FEW OR NO CLOUDS BELOW 12,000 FEET WITH NO
SIGNIFICANT WEATHER AND/OR OBSTRUCTIONS TO VISIBILITY.


CITY           SKY/WX    TMP DP  RH WIND       PRES   REMARKS
WILLISTON      LGT SNOW   3  -2  79 E8        29.94F WCI -10
MINOT          CLOUDY    -4 -10  75 E14       30.05F WCI -24
MINOT AFB      CLOUDY    -6 -11  80 E15       30.06F WCI -27
BISMARCK       FLURRIES  -1  -5  82 E13       30.02F WCI -19
DICKINSON      LGT SNOW  -4  -8  83 E14       29.83F VSB 1   WCI -24
GARRISON         N/A     -2  -7  79 E12       30.00F WCI -20
HETTINGER ARPT CLOUDY    -2  -5  87 E10       29.84F WCI -19
JAMESTOWN      LGT SNOW  -1  -6  79 E9        30.11R WCI -16
CARRINGTON     CLOUDY    -2  -6  84 E12       30.12F WCI -20
HAZEN          CLOUDY     0  -8  71 E12G18    30.02F WCI -18
RUGBY            N/A     -2  -8  78 E12       30.10F WCI -20
STANLEY        CLOUDY    -6  -9  84 E13       29.99R WCI -25
TIOGA          LGT SNOW  -2  -4  92 E16       29.95F WCI -23
WATFORD CITY   LGT SNOW   0  -6  78 SE15      29.91F WCI -20
$$

CITY           SKY/WX    TMP DP  RH WIND       PRES   REMARKS
GRAND FORKS    CLOUDY    -5 -10  79 NE5       30.26F WCI -16
GRAND FORKS AF FLURRIES  -8 -11  84 E6        30.25S WCI -21
DEVILS LAKE    CLOUDY    -5  -9  83 E12       30.15F WCI -23
FARGO          CLOUDY     3  -5  69 E8        30.20F WCI -10
CANDO          CLOUDY    -4  -9  77 SE12      30.17S WCI -22
CAVALIER         N/A     -8 -11  84 CALM      30.27S
GRAFTON        FAIR      -9 -13  84 CALM      30.29F
GWINNER        CLOUDY     3   0  85 E16       30.11F WCI -16
LANGDON        FAIR     -11 -17  77 E6        30.15F WCI -25
ROLLA          CLOUDY    -9 -13  84 CALM      30.11F
WALHALLA         N/A    -11 -11 100 CALM      30.26F
$$

CITY           SKY/WX    TMP DP  RH WIND       PRES   REMARKS
ABERDEEN       LGT SNOW   6  -1  73 NE15      30.06F WCI -12
MOBRIDGE       LGT SNOW   5  -2  72 MISG      29.92F
BUFFALO          N/A      3  -2  79 SE9       29.70F WCI -12
RAPID CITY     CLOUDY     5   2  87 E5        29.74R WCI  -4
GLASGOW        CLOUDY     2  -2  83 E15       29.84F WCI -17
SIDNEY         LGT SNOW   1  -3  83 E12       29.90F FOG     WCI -16
WOLF POINT     SNOW       4  -1  80 NE13      29.90F VSB 1/2 WCI -13
GLENDIVE       LGT SNOW   5   1  83 S5        29.84R FOG     WCI  -4
MILES CITY     CLOUDY    11   6  81 S5        29.78R WCI   3
BAKER          LGT SNOW   2  -3  80 SE23      29.76S VSB 3/4 WCI -21
$$

CITY           SKY/WX    TMP DP  RH WIND       PRES   REMARKS
BILLINGS       CLOUDY    21  18  88 SW13      29.71R WCI   9
GREAT FALLS    CLOUDY    -1  -5  82 CALM      29.75S
REGINA         CLOUDY    -8 -18  59 E14       30.01F WCI -28
ESTEVAN        FLURRIES -11 -17  77 E15       30.02F WCI -34
$$




USA.gov is the U.S. government's official web portal to all federal, state and local government web resources and services.